Location: Dead Woman Crossing
(43.5369°N, 106.3228°W)
Time: 21:36:31
(UTC+00:00)

QB50P2 - Pass Details

Date: 01 July 2022
Orbit: 590 x 605 km, 97.9° (Epoch: 07 August)

Event Time Altitude Azimuth Distance (km) Brightness Sun altitude
Rises 08:09:28 0° 18° (NNE) 2,858 ? -21.9°
Reaches altitude 10° 08:11:42 10° 24° (NNE) 1,953 ? -21.8°
Maximum altitude 08:15:50 50° 100° (E) 776 ? -21.6°
Enters shadow 08:16:34 44° 134° (SE) 839 ? -21.6°
